Location: *
(47.7167°N, 1.7333°W)
Time: 23:33:23
(UTC+00:00)

SL-16 R/B - Pass Details

Date: 09 April 2020
Orbit: 842 x 846 km, 71.0° (Epoch: 27 May)

Event Time Altitude Azimuth Distance (km) Brightness Sun altitude
Rises 21:28:00 0° 337° (NNW) 3,415 6.5 -24.0°
Reaches altitude 10° 21:31:11 10° 355° (N) 2,477 5.3 -24.4°
Maximum altitude 21:35:15 20° 41° (NE) 1,884 4.0 -24.8°
Enters shadow 21:36:48 18° 62° (ENE) 1,983 4.0 -25.0°
